Location: Cazavet
(43.0017°N, 1.0431°E)
Time: 08:32:10
(UTC+00:00)

Cosmos 1666 Rocket - Pass Details

Date: 18 January 2026
Orbit: 598 x 624 km, 82.5° (Epoch: 9 February)

Event Time Altitude Azimuth Distance (km) Brightness Sun altitude
Rises 06:32:03 0° 207° (SSW) 2,853 6.9 -9.3°
Reaches altitude 10° 06:34:23 10° 216° (SW) 1,959 6.0 -8.9°
Maximum altitude 06:38:24 36° 284° (WNW) 975 4.1 -8.2°
Drops below altitude 10° 06:42:28 10° 352° (N) 1,989 5.9 -7.5°
Sets 06:44:52 0° 1° (N) 2,904 6.8 -7.1°
